| time (UTC) | temp F | wind direction | speed knots | gust knots | rain 1hr in | rain 24hr in | rain mn in | humidity % | barometer mb |
| 20260507041340 | 57 | 0 | 0.0 | 1.7 | 0.00 | 0.00 | 0.00 | 81 | 1018.1 |
| 20260507040840 | 57 | 0 | 0.0 | 1.7 | 0.00 | 0.00 | 0.00 | 80 | 1018.1 |
| 20260507040340 | 57 | 0 | 0.0 | 0.9 | 0.00 | 0.00 | 0.00 | 80 | 1018.0 |
| 20260507035840 | 58 | 0 | 0.0 | 1.7 | 0.00 | 0.00 | 0.00 | 79 | 1017.9 |
| 20260507035340 | 58 | 0 | 0.0 | 1.7 | 0.00 | 0.00 | 0.00 | 79 | 1017.9 |
| 20260507034840 | 58 | 0 | 0.0 | 1.7 | 0.00 | 0.00 | 0.00 | 78 | 1017.8 |
| 20260507033840 | 58 | 0 | 0.0 | 2.6 | 0.00 | 0.00 | 0.00 | 77 | 1017.7 |
| 20260507033340 | 59 | 0 | 0.0 | 2.6 | 0.00 | 0.00 | 0.00 | 77 | 1017.6 |
| 20260507032841 | 59 | 0 | 0.0 | 1.7 | 0.00 | 0.00 | 0.00 | 76 | 1017.5 |
| 20260507032340 | 59 | 0 | 0.0 | 1.7 | 0.00 | 0.00 | 0.00 | 76 | 1017.5 |
| 20260507031840 | 59 | 0 | 0.0 | 1.7 | 0.00 | 0.00 | 0.00 | 75 | 1017.4 |
| 20260507031340 | 60 | 0 | 0.0 | 1.7 | 0.00 | 0.00 | 0.00 | 75 | 1017.3 |
| 20260507030840 | 60 | 0 | 0.0 | 1.7 | 0.00 | 0.00 | 0.00 | 74 | 1017.3 |
| 20260507030340 | 60 | 0 | 0.0 | 1.7 | 0.00 | 0.00 | 0.00 | 74 | 1017.2 |
| 20260507025840 | 60 | 0 | 0.0 | 1.7 | 0.00 | 0.00 | 0.00 | 73 | 1017.1 |
| 20260507025340 | 61 | 0 | 0.0 | 2.6 | 0.00 | 0.00 | 0.00 | 73 | 1017.2 |
| 20260507024840 | 61 | 94 | 0.9 | 3.5 | 0.00 | 0.00 | 0.00 | 72 | 1017.2 |
| 20260507024340 | 61 | 0 | 0.0 | 3.5 | 0.00 | 0.00 | 0.00 | 71 | 1017.2 |
| 20260507023840 | 62 | 0 | 0.0 | 3.5 | 0.00 | 0.00 | 0.00 | 71 | 1017.1 |
| 20260507023340 | 62 | 0 | 0.0 | 3.5 | 0.00 | 0.00 | 0.00 | 70 | 1017.1 |
| 20260507022842 | 62 | 0 | 0.0 | 3.5 | 0.00 | 0.00 | 0.00 | 70 | 1017.0 |
| 20260507022343 | 63 | 0 | 0.0 | 3.5 | 0.00 | 0.00 | 0.00 | 69 | 1016.9 |
| 20260507021840 | 64 | 99 | 0.9 | 3.5 | 0.00 | 0.00 | 0.00 | 67 | 1017.0 |
| 20260507021340 | 64 | 0 | 0.0 | 3.5 | 0.00 | 0.00 | 0.00 | 66 | 1016.9 |
| 20260507020840 | 65 | 68 | 0.9 | 3.5 | 0.00 | 0.00 | 0.00 | 65 | 1016.9 |
| 20260507020340 | 65 | 83 | 0.9 | 3.5 | 0.00 | 0.00 | 0.00 | 65 | 1016.9 |
| 20260507015341 | 65 | 105 | 0.9 | 3.5 | 0.00 | 0.00 | 0.00 | 64 | 1016.8 |
| 20260507014841 | 66 | 119 | 0.9 | 6.1 | 0.00 | 0.00 | 0.00 | 63 | 1016.7 |
| 20260507014340 | 67 | 138 | 0.9 | 6.1 | 0.00 | 0.00 | 0.00 | 62 | 1016.7 |
| 20260507013840 | 68 | 234 | 0.9 | 4.3 | 0.00 | 0.00 | 0.00 | 60 | 1016.6 |
| 20260507013340 | 69 | 0 | 0.0 | 4.3 | 0.00 | 0.00 | 0.00 | 60 | 1016.6 |
| 20260507012840 | 69 | 78 | 1.7 | 4.3 | 0.00 | 0.00 | 0.00 | 59 | 1016.7 |
| 20260507012340 | 69 | 0 | 0.0 | 5.2 | 0.00 | 0.00 | 0.00 | 59 | 1016.6 |
| 20260507011840 | 69 | 123 | 1.7 | 5.2 | 0.00 | 0.00 | 0.00 | 59 | 1016.6 |
| 20260507011340 | 69 | 187 | 0.9 | 5.2 | 0.00 | 0.00 | 0.00 | 59 | 1016.5 |
| 20260507010840 | 70 | 97 | 0.9 | 5.2 | 0.00 | 0.00 | 0.00 | 58 | 1016.6 |
| 20260507010340 | 70 | 108 | 1.7 | 4.3 | 0.00 | 0.00 | 0.00 | 57 | 1016.5 |
| 20260507005840 | 71 | 105 | 0.9 | 5.2 | 0.00 | 0.00 | 0.00 | 57 | 1016.5 |
| 20260507005340 | 71 | 75 | 0.9 | 5.2 | 0.00 | 0.00 | 0.00 | 57 | 1016.4 |
| 20260507004840 | 71 | 100 | 1.7 | 4.3 | 0.00 | 0.00 | 0.00 | 57 | 1016.4 |
| 20260507003840 | 72 | 113 | 1.7 | 4.3 | 0.00 | 0.00 | 0.00 | 56 | 1016.4 |
| 20260507003340 | 72 | 92 | 0.9 | 5.2 | 0.00 | 0.00 | 0.00 | 55 | 1016.4 |
| 20260507002840 | 72 | 86 | 1.7 | 5.2 | 0.00 | 0.00 | 0.00 | 55 | 1016.3 |
| 20260507002340 | 72 | 62 | 1.7 | 5.2 | 0.00 | 0.00 | 0.00 | 55 | 1016.3 |
| 20260507001840 | 72 | 117 | 0.9 | 5.2 | 0.00 | 0.00 | 0.00 | 55 | 1016.2 |
| 20260507001340 | 71 | 73 | 1.7 | 5.2 | 0.00 | 0.00 | 0.00 | 56 | 1016.2 |
| 20260507000840 | 71 | 83 | 1.7 | 8.7 | 0.00 | 0.00 | 0.00 | 56 | 1016.2 |
| 20260507000343 | 72 | 102 | 3.5 | 8.7 | 0.00 | 0.00 | 0.00 | 55 | 1016.2 |
| 20260506235840 | 72 | 66 | 2.6 | 7.0 | 0.00 | 0.00 | 0.00 | 55 | 1016.3 |
| 20260506235343 | 72 | 146 | 0.9 | 7.0 | 0.00 | 0.00 | 0.00 | 54 | 1016.2 |
| 20260506234840 | 73 | 66 | 1.7 | 7.0 | 0.00 | 0.00 | 0.00 | 53 | 1016.2 |
| 20260506234340 | 73 | 360 | 1.7 | 7.0 | 0.00 | 0.00 | 0.00 | 53 | 1016.2 |
| 20260506233840 | 73 | 45 | 1.7 | 7.0 | 0.00 | 0.00 | 0.00 | 52 | 1016.2 |
| 20260506233340 | 73 | 48 | 1.7 | 7.0 | 0.00 | 0.00 | 0.00 | 53 | 1016.2 |
| 20260506232840 | 73 | 100 | 1.7 | 8.7 | 0.00 | 0.00 | 0.00 | 54 | 1016.2 |
| 20260506232341 | 73 | 88 | 2.6 | 8.7 | 0.00 | 0.00 | 0.00 | 53 | 1016.2 |
| 20260506231840 | 73 | 107 | 2.6 | 7.8 | 0.00 | 0.00 | 0.00 | 53 | 1016.2 |
| 20260506231341 | 73 | 65 | 1.7 | 7.8 | 0.00 | 0.00 | 0.00 | 53 | 1016.2 |
| 20260506230840 | 74 | 109 | 1.7 | 5.2 | 0.00 | 0.00 | 0.00 | 52 | 1016.3 |
| 20260506230340 | 74 | 39 | 1.7 | 7.8 | 0.00 | 0.00 | 0.00 | 52 | 1016.2 |
| 20260506225840 | 74 | 83 | 1.7 | 7.8 | 0.00 | 0.00 | 0.00 | 52 | 1016.3 |
| 20260506225340 | 75 | 71 | 1.7 | 7.8 | 0.00 | 0.00 | 0.00 | 51 | 1016.3 |
| 20260506224840 | 75 | 86 | 0.9 | 8.7 | 0.00 | 0.00 | 0.00 | 52 | 1016.4 |
| 20260506224340 | 75 | 123 | 0.9 | 8.7 | 0.00 | 0.00 | 0.00 | 52 | 1016.4 |
| 20260506223840 | 75 | 118 | 0.9 | 7.8 | 0.00 | 0.00 | 0.00 | 51 | 1016.4 |
| 20260506223340 | 75 | 71 | 1.7 | 7.8 | 0.00 | 0.00 | 0.00 | 51 | 1016.5 |
| 20260506222840 | 75 | 86 | 1.7 | 6.1 | 0.00 | 0.00 | 0.00 | 51 | 1016.4 |
| 20260506222340 | 75 | 96 | 0.9 | 7.8 | 0.00 | 0.00 | 0.00 | 51 | 1016.5 |
| 20260506221840 | 74 | 99 | 1.7 | 7.8 | 0.00 | 0.00 | 0.00 | 52 | 1016.5 |
| 20260506221340 | 74 | 48 | 1.7 | 6.1 | 0.00 | 0.00 | 0.00 | 52 | 1016.6 |
| 20260506220841 | 74 | 55 | 1.7 | 10.4 | 0.00 | 0.00 | 0.00 | 52 | 1016.7 |
| 20260506220340 | 74 | 50 | 1.7 | 10.4 | 0.00 | 0.00 | 0.00 | 52 | 1016.7 |
| 20260506215840 | 74 | 89 | 1.7 | 7.8 | 0.00 | 0.00 | 0.00 | 51 | 1016.9 |
| 20260506215340 | 75 | 36 | 2.6 | 7.8 | 0.00 | 0.00 | 0.00 | 51 | 1016.9 |
| 20260506214840 | 74 | 58 | 0.9 | 7.0 | 0.00 | 0.00 | 0.00 | 51 | 1016.9 |
| 20260506214340 | 74 | 75 | 1.7 | 5.2 | 0.00 | 0.00 | 0.00 | 51 | 1016.9 |
| 20260506213840 | 75 | 140 | 2.6 | 7.8 | 0.00 | 0.00 | 0.00 | 51 | 1017.0 |
| 20260506213340 | 74 | 345 | 1.7 | 7.8 | 0.00 | 0.00 | 0.00 | 51 | 1017.0 |
| 20260506212840 | 74 | 320 | 1.7 | 7.8 | 0.00 | 0.00 | 0.00 | 51 | 1017.0 |
| 20260506212340 | 74 | 98 | 2.6 | 7.8 | 0.00 | 0.00 | 0.00 | 50 | 1016.9 |
| 20260506211840 | 75 | 111 | 0.9 | 5.2 | 0.00 | 0.00 | 0.00 | 51 | 1017.0 |
| 20260506211340 | 74 | 19 | 1.7 | 7.0 | 0.00 | 0.00 | 0.00 | 51 | 1016.9 |
| 20260506210840 | 74 | 63 | 2.6 | 7.0 | 0.00 | 0.00 | 0.00 | 50 | 1017.0 |
| 20260506210340 | 75 | 102 | 2.6 | 7.0 | 0.00 | 0.00 | 0.00 | 50 | 1017.0 |
| 20260506205840 | 75 | 32 | 2.6 | 7.0 | 0.00 | 0.00 | 0.00 | 50 | 1017.0 |
| 20260506205342 | 75 | 97 | 2.6 | 7.0 | 0.00 | 0.00 | 0.00 | 50 | 1017.1 |
| 20260506204840 | 75 | 105 | 1.7 | 6.1 | 0.00 | 0.00 | 0.00 | 50 | 1016.9 |
| 20260506204340 | 75 | 110 | 2.6 | 5.2 | 0.00 | 0.00 | 0.00 | 50 | 1017.0 |
| 20260506203840 | 74 | 66 | 1.7 | 6.1 | 0.00 | 0.00 | 0.00 | 51 | 1016.9 |
| 20260506203340 | 74 | 105 | 1.7 | 7.0 | 0.00 | 0.00 | 0.00 | 51 | 1016.9 |
| 20260506202340 | 75 | 63 | 1.7 | 7.8 | 0.00 | 0.00 | 0.00 | 50 | 1017.1 |
| 20260506201841 | 75 | 55 | 1.7 | 9.6 | 0.00 | 0.00 | 0.00 | 50 | 1017.1 |
| 20260506201340 | 76 | 8 | 1.7 | 9.6 | 0.00 | 0.00 | 0.00 | 50 | 1017.1 |
| 20260506200840 | 76 | 105 | 1.7 | 9.6 | 0.00 | 0.00 | 0.00 | 51 | 1017.1 |
| 20260506200340 | 76 | 85 | 1.7 | 7.0 | 0.00 | 0.00 | 0.00 | 50 | 1017.1 |
| 20260506195840 | 76 | 121 | 1.7 | 7.0 | 0.00 | 0.00 | 0.00 | 50 | 1017.2 |
| 20260506195340 | 76 | 74 | 0.9 | 5.2 | 0.00 | 0.00 | 0.00 | 50 | 1017.2 |
| 20260506194840 | 76 | 75 | 1.7 | 7.0 | 0.00 | 0.00 | 0.00 | 50 | 1017.2 |
| 20260506194340 | 76 | 73 | 0.9 | 7.0 | 0.00 | 0.00 | 0.00 | 49 | 1017.1 |
| 20260506193840 | 76 | 92 | 1.7 | 6.1 | 0.00 | 0.00 | 0.00 | 49 | 1017.1 |
| 20260506193340 | 76 | 91 | 1.7 | 6.1 | 0.00 | 0.00 | 0.00 | 49 | 1017.2 |
| 20260506192840 | 76 | 91 | 0.9 | 5.2 | 0.00 | 0.00 | 0.00 | 49 | 1017.2 |
| 20260506192340 | 75 | 40 | 0.9 | 5.2 | 0.00 | 0.00 | 0.00 | 49 | 1017.2 |
| 20260506191840 | 75 | 76 | 1.7 | 4.3 | 0.00 | 0.00 | 0.00 | 50 | 1017.3 |
| 20260506191340 | 75 | 41 | 1.7 | 4.3 | 0.00 | 0.00 | 0.00 | 49 | 1017.4 |
| 20260506190840 | 75 | 83 | 0.9 | 4.3 | 0.00 | 0.00 | 0.00 | 50 | 1017.5 |
| 20260506190340 | 74 | 107 | 0.9 | 3.5 | 0.00 | 0.00 | 0.00 | 50 | 1017.5 |
| 20260506185840 | 74 | 52 | 1.7 | 3.5 | 0.00 | 0.00 | 0.00 | 49 | 1017.6 |
| 20260506185340 | 74 | 96 | 0.9 | 3.5 | 0.00 | 0.00 | 0.00 | 49 | 1017.8 |
| 20260506184840 | 74 | 0 | 0.0 | 4.3 | 0.00 | 0.00 | 0.00 | 50 | 1017.9 |
| 20260506184340 | 73 | 112 | 1.7 | 4.3 | 0.00 | 0.00 | 0.00 | 52 | 1018.0 |
| 20260506183841 | 73 | 111 | 0.9 | 4.3 | 0.00 | 0.00 | 0.00 | 52 | 1018.0 |
| 20260506183340 | 73 | 115 | 0.9 | 3.5 | 0.00 | 0.00 | 0.00 | 52 | 1018.1 |
| 20260506182840 | 72 | 0 | 0.0 | 3.5 | 0.00 | 0.00 | 0.00 | 54 | 1018.0 |
| 20260506182341 | 72 | 107 | 0.9 | 4.3 | 0.00 | 0.00 | 0.00 | 55 | 1018.2 |
| 20260506181840 | 71 | 51 | 0.9 | 4.3 | 0.00 | 0.00 | 0.00 | 54 | 1018.3 |
| 20260506181340 | 71 | 93 | 0.9 | 3.5 | 0.00 | 0.00 | 0.00 | 55 | 1018.3 |
| 20260506180842 | 71 | 91 | 0.9 | 2.6 | 0.00 | 0.00 | 0.00 | 54 | 1018.4 |
| 20260506175840 | 70 | 0 | 0.0 | 3.5 | 0.00 | 0.00 | 0.00 | 54 | 1018.5 |
| 20260506175340 | 70 | 0 | 0.0 | 3.5 | 0.00 | 0.00 | 0.00 | 55 | 1018.4 |
| 20260506174840 | 70 | 0 | 0.0 | 2.6 | 0.00 | 0.00 | 0.00 | 56 | 1018.4 |
| 20260506174340 | 69 | 0 | 0.0 | 1.7 | 0.00 | 0.00 | 0.00 | 58 | 1018.4 |
| 20260506173841 | 68 | 0 | 0.0 | 3.5 | 0.00 | 0.00 | 0.00 | 57 | 1018.4 |
| 20260506173340 | 67 | 109 | 0.9 | 3.5 | 0.00 | 0.00 | 0.00 | 59 | 1018.4 |
| 20260506172840 | 68 | 123 | 0.9 | 3.5 | 0.00 | 0.00 | 0.00 | 59 | 1018.5 |
| 20260506172340 | 68 | 51 | 0.9 | 2.6 | 0.00 | 0.00 | 0.00 | 60 | 1018.4 |
| 20260506171840 | 67 | 0 | 0.0 | 1.7 | 0.00 | 0.00 | 0.00 | 60 | 1018.5 |
| 20260506171340 | 66 | 0 | 0.0 | 1.7 | 0.00 | 0.00 | 0.00 | 62 | 1018.6 |
| 20260506170840 | 66 | 0 | 0.0 | 2.6 | 0.00 | 0.00 | 0.00 | 62 | 1018.5 |
| 20260506170340 | 65 | 41 | 0.9 | 2.6 | 0.00 | 0.00 | 0.00 | 64 | 1018.5 |
| 20260506165840 | 64 | 0 | 0.0 | 2.6 | 0.00 | 0.00 | 0.00 | 65 | 1018.5 |
| 20260506165340 | 64 | 53 | 0.9 | 2.6 | 0.00 | 0.00 | 0.00 | 65 | 1018.5 |
| 20260506164841 | 64 | 45 | 0.9 | 2.6 | 0.00 | 0.00 | 0.00 | 66 | 1018.5 |
| 20260506164340 | 63 | 0 | 0.0 | 1.7 | 0.00 | 0.00 | 0.00 | 66 | 1018.5 |
| 20260506163840 | 63 | 0 | 0.0 | 1.7 | 0.00 | 0.00 | 0.00 | 67 | 1018.4 |
| 20260506163341 | 63 | 0 | 0.0 | 2.6 | 0.00 | 0.00 | 0.00 | 68 | 1018.4 |
| 20260506162840 | 63 | 77 | 0.9 | 3.5 | 0.00 | 0.00 | 0.00 | 68 | 1018.5 |
| 20260506162340 | 62 | 0 | 0.0 | 3.5 | 0.00 | 0.00 | 0.00 | 69 | 1018.5 |
| 20260506161840 | 61 | 0 | 0.0 | 3.5 | 0.00 | 0.00 | 0.00 | 71 | 1018.5 |
| 20260506161340 | 61 | 0 | 0.0 | 3.5 | 0.00 | 0.00 | 0.00 | 71 | 1018.7 |
| 20260506160840 | 61 | 0 | 0.0 | 1.7 | 0.00 | 0.00 | 0.00 | 72 | 1018.7 |
| 20260506160340 | 60 | 0 | 0.0 | 2.6 | 0.00 | 0.00 | 0.00 | 72 | 1018.6 |
| 20260506155840 | 60 | 0 | 0.0 | 2.6 | 0.00 | 0.00 | 0.00 | 73 | 1018.7 |
| 20260506155340 | 59 | 0 | 0.0 | 1.7 | 0.00 | 0.00 | 0.00 | 75 | 1018.7 |
| 20260506154840 | 59 | 0 | 0.0 | 1.7 | 0.00 | 0.00 | 0.00 | 76 | 1018.7 |
| 20260506154340 | 58 | 0 | 0.0 | 1.7 | 0.00 | 0.00 | 0.00 | 77 | 1018.6 |
| 20260506153340 | 56 | 0 | 0.0 | 0.9 | 0.00 | 0.00 | 0.00 | 79 | 1018.6 |
| 20260506152840 | 56 | 0 | 0.0 | 0.9 | 0.00 | 0.00 | 0.00 | 80 | 1018.5 |
| 20260506152340 | 56 | 0 | 0.0 | 1.7 | 0.00 | 0.00 | 0.00 | 81 | 1018.6 |
| 20260506151840 | 56 | 0 | 0.0 | 1.7 | 0.00 | 0.00 | 0.00 | 82 | 1018.7 |
| 20260506151340 | 55 | 0 | 0.0 | 1.7 | 0.00 | 0.00 | 0.00 | 82 | 1018.8 |
| 20260506150840 | 55 | 0 | 0.0 | 1.7 | 0.00 | 0.00 | 0.00 | 83 | 1018.8 |
| 20260506150340 | 55 | 0 | 0.0 | 1.7 | 0.00 | 0.00 | 0.00 | 83 | 1018.7 |
| 20260506145840 | 55 | 0 | 0.0 | 1.7 | 0.00 | 0.00 | 0.00 | 83 | 1018.7 |
| 20260506145340 | 54 | 0 | 0.0 | 1.7 | 0.00 | 0.00 | 0.00 | 84 | 1018.6 |
| 20260506144840 | 54 | 0 | 0.0 | 0.9 | 0.00 | 0.00 | 0.00 | 84 | 1018.6 |
| 20260506144340 | 54 | 0 | 0.0 | 0.9 | 0.00 | 0.00 | 0.00 | 84 | 1018.6 |
| 20260506143840 | 54 | 0 | 0.0 | 0.9 | 0.00 | 0.00 | 0.00 | 84 | 1018.6 |
| 20260506143340 | 54 | 0 | 0.0 | 0.9 | 0.00 | 0.00 | 0.00 | 84 | 1018.6 |
| 20260506142840 | 54 | 0 | 0.0 | 0.9 | 0.00 | 0.00 | 0.00 | 84 | 1018.5 |
| 20260506142340 | 54 | 0 | 0.0 | 0.9 | 0.00 | 0.00 | 0.00 | 84 | 1018.4 |
| 20260506141840 | 54 | 0 | 0.0 | 0.9 | 0.00 | 0.00 | 0.00 | 85 | 1018.5 |
| 20260506141340 | 53 | 0 | 0.0 | 0.9 | 0.00 | 0.00 | 0.00 | 85 | 1018.4 |
| 20260506140840 | 53 | 0 | 0.0 | 0.9 | 0.00 | 0.00 | 0.00 | 85 | 1018.4 |
| 20260506140340 | 53 | 0 | 0.0 | 0.9 | 0.00 | 0.00 | 0.00 | 86 | 1018.4 |
| 20260506135840 | 53 | 0 | 0.0 | 0.9 | 0.00 | 0.00 | 0.00 | 86 | 1018.3 |
| 20260506135340 | 53 | 0 | 0.0 | 0.9 | 0.00 | 0.00 | 0.00 | 86 | 1018.3 |
| 20260506134840 | 53 | 0 | 0.0 | 0.0 | 0.00 | 0.00 | 0.00 | 87 | 1018.2 |
| 20260506134340 | 52 | 0 | 0.0 | 0.0 | 0.00 | 0.00 | 0.00 | 87 | 1018.3 |
| 20260506133840 | 52 | 0 | 0.0 | 0.0 | 0.00 | 0.00 | 0.00 | 87 | 1018.3 |
| 20260506133340 | 52 | 0 | 0.0 | 0.0 | 0.00 | 0.00 | 0.00 | 87 | 1018.3 |
| 20260506132840 | 52 | 0 | 0.0 | 0.9 | 0.00 | 0.00 | 0.00 | 87 | 1018.2 |
| 20260506132340 | 52 | 0 | 0.0 | 0.9 | 0.00 | 0.00 | 0.00 | 87 | 1018.1 |
| 20260506131840 | 52 | 0 | 0.0 | 0.0 | 0.00 | 0.00 | 0.00 | 87 | 1018.1 |
| 20260506131340 | 52 | 0 | 0.0 | 0.9 | 0.00 | 0.00 | 0.00 | 87 | 1018.1 |
| 20260506130840 | 52 | 0 | 0.0 | 0.9 | 0.00 | 0.00 | 0.00 | 87 | 1018.0 |
| 20260506130340 | 52 | 0 | 0.0 | 0.0 | 0.00 | 0.00 | 0.00 | 86 | 1018.0 |
| 20260506125840 | 52 | 0 | 0.0 | 0.0 | 0.00 | 0.00 | 0.00 | 85 | 1017.9 |
| 20260506125340 | 52 | 0 | 0.0 | 0.0 | 0.00 | 0.00 | 0.00 | 85 | 1017.8 |
| 20260506124840 | 53 | 0 | 0.0 | 0.0 | 0.00 | 0.00 | 0.00 | 85 | 1017.9 |
| 20260506124340 | 53 | 0 | 0.0 | 0.9 | 0.00 | 0.00 | 0.00 | 85 | 1017.8 |
| 20260506123840 | 53 | 0 | 0.0 | 0.9 | 0.00 | 0.00 | 0.00 | 85 | 1017.8 |
| 20260506123340 | 53 | 0 | 0.0 | 0.9 | 0.00 | 0.00 | 0.00 | 85 | 1017.9 |
| 20260506122840 | 53 | 0 | 0.0 | 0.9 | 0.00 | 0.00 | 0.00 | 85 | 1017.9 |
| 20260506122340 | 53 | 0 | 0.0 | 1.7 | 0.00 | 0.00 | 0.00 | 85 | 1017.8 |
| 20260506121840 | 53 | 0 | 0.0 | 1.7 | 0.00 | 0.00 | 0.00 | 85 | 1017.9 |
| 20260506121340 | 53 | 0 | 0.0 | 1.7 | 0.00 | 0.00 | 0.00 | 86 | 1017.9 |
| 20260506120840 | 53 | 0 | 0.0 | 0.0 | 0.00 | 0.00 | 0.00 | 86 | 1017.8 |
| 20260506120340 | 53 | 0 | 0.0 | 0.0 | 0.00 | 0.00 | 0.00 | 86 | 1017.8 |
| 20260506115840 | 53 | 0 | 0.0 | 0.0 | 0.00 | 0.00 | 0.00 | 86 | 1017.9 |
| 20260506115340 | 53 | 0 | 0.0 | 0.9 | 0.00 | 0.00 | 0.00 | 86 | 1017.9 |
| 20260506114840 | 53 | 0 | 0.0 | 0.9 | 0.00 | 0.00 | 0.00 | 86 | 1018.0 |
| 20260506114340 | 53 | 0 | 0.0 | 0.0 | 0.00 | 0.00 | 0.00 | 85 | 1018.1 |
| 20260506113840 | 53 | 0 | 0.0 | 0.9 | 0.00 | 0.00 | 0.00 | 85 | 1018.1 |
| 20260506113340 | 53 | 0 | 0.0 | 0.9 | 0.00 | 0.00 | 0.00 | 85 | 1018.0 |
| 20260506112840 | 53 | 0 | 0.0 | 0.9 | 0.00 | 0.00 | 0.00 | 85 | 1017.9 |
| 20260506112340 | 53 | 0 | 0.0 | 0.0 | 0.00 | 0.00 | 0.00 | 85 | 1018.0 |
| 20260506111840 | 53 | 0 | 0.0 | 0.0 | 0.00 | 0.00 | 0.00 | 85 | 1018.0 |
| 20260506111340 | 53 | 0 | 0.0 | 0.9 | 0.00 | 0.00 | 0.00 | 86 | 1018.0 |
| 20260506110840 | 53 | 0 | 0.0 | 0.9 | 0.00 | 0.00 | 0.00 | 86 | 1017.9 |
| 20260506110340 | 53 | 0 | 0.0 | 0.9 | 0.00 | 0.00 | 0.00 | 86 | 1018.0 |
| 20260506105841 | 53 | 0 | 0.0 | 0.0 | 0.00 | 0.00 | 0.00 | 86 | 1018.0 |
| 20260506105340 | 53 | 0 | 0.0 | 0.0 | 0.00 | 0.00 | 0.00 | 86 | 1018.0 |
| 20260506104840 | 53 | 0 | 0.0 | 0.9 | 0.00 | 0.00 | 0.00 | 86 | 1018.0 |
| 20260506104340 | 53 | 0 | 0.0 | 0.9 | 0.00 | 0.00 | 0.00 | 86 | 1018.0 |
| 20260506103840 | 53 | 0 | 0.0 | 0.0 | 0.00 | 0.00 | 0.00 | 86 | 1017.9 |
| 20260506103340 | 53 | 0 | 0.0 | 0.0 | 0.00 | 0.00 | 0.00 | 86 | 1017.9 |
| 20260506102840 | 53 | 0 | 0.0 | 0.9 | 0.00 | 0.00 | 0.00 | 85 | 1017.9 |
| 20260506102340 | 53 | 0 | 0.0 | 0.9 | 0.00 | 0.00 | 0.00 | 85 | 1017.9 |
| 20260506101840 | 53 | 0 | 0.0 | 0.9 | 0.00 | 0.00 | 0.00 | 85 | 1017.9 |
| 20260506101340 | 53 | 0 | 0.0 | 0.9 | 0.00 | 0.00 | 0.00 | 86 | 1017.9 |
| 20260506100340 | 54 | 0 | 0.0 | 0.9 | 0.00 | 0.00 | 0.00 | 85 | 1017.9 |
| 20260506095840 | 54 | 0 | 0.0 | 0.0 | 0.00 | 0.00 | 0.00 | 85 | 1017.8 |
| 20260506095340 | 54 | 0 | 0.0 | 0.0 | 0.00 | 0.00 | 0.00 | 85 | 1017.8 |
| 20260506094840 | 54 | 0 | 0.0 | 0.9 | 0.00 | 0.00 | 0.00 | 85 | 1017.9 |
| 20260506094340 | 54 | 0 | 0.0 | 0.9 | 0.00 | 0.00 | 0.00 | 86 | 1017.9 |
| 20260506093840 | 54 | 0 | 0.0 | 0.9 | 0.00 | 0.00 | 0.00 | 86 | 1017.9 |
| 20260506093340 | 54 | 0 | 0.0 | 0.9 | 0.00 | 0.00 | 0.00 | 86 | 1017.9 |
| 20260506092840 | 54 | 0 | 0.0 | 0.9 | 0.00 | 0.00 | 0.00 | 86 | 1017.9 |
| 20260506092340 | 54 | 0 | 0.0 | 0.9 | 0.00 | 0.00 | 0.00 | 86 | 1017.8 |
| 20260506091840 | 54 | 0 | 0.0 | 0.9 | 0.00 | 0.00 | 0.00 | 86 | 1017.9 |
| 20260506091341 | 54 | 0 | 0.0 | 0.9 | 0.00 | 0.00 | 0.00 | 86 | 1018.0 |
| 20260506090840 | 53 | 0 | 0.0 | 0.9 | 0.00 | 0.00 | 0.00 | 86 | 1018.0 |
| 20260506090340 | 53 | 0 | 0.0 | 0.9 | 0.00 | 0.00 | 0.00 | 86 | 1018.0 |
| 20260506085840 | 53 | 0 | 0.0 | 0.9 | 0.00 | 0.00 | 0.00 | 86 | 1018.0 |
| 20260506085340 | 53 | 0 | 0.0 | 1.7 | 0.00 | 0.00 | 0.00 | 86 | 1018.2 |
| 20260506084840 | 53 | 0 | 0.0 | 1.7 | 0.00 | 0.00 | 0.00 | 87 | 1018.2 |
| 20260506084340 | 53 | 0 | 0.0 | 1.7 | 0.00 | 0.00 | 0.00 | 87 | 1018.2 |
| 20260506083840 | 53 | 0 | 0.0 | 1.7 | 0.00 | 0.00 | 0.00 | 87 | 1018.2 |
| 20260506083340 | 53 | 0 | 0.0 | 1.7 | 0.00 | 0.00 | 0.00 | 87 | 1018.3 |
| 20260506082840 | 53 | 0 | 0.0 | 0.0 | 0.00 | 0.00 | 0.00 | 87 | 1018.2 |
| 20260506082340 | 52 | 0 | 0.0 | 0.9 | 0.00 | 0.00 | 0.00 | 87 | 1018.3 |
| 20260506081842 | 52 | 0 | 0.0 | 0.9 | 0.00 | 0.00 | 0.00 | 87 | 1018.2 |
| 20260506081340 | 52 | 0 | 0.0 | 0.9 | 0.00 | 0.00 | 0.00 | 87 | 1018.2 |
| 20260506080840 | 52 | 0 | 0.0 | 0.9 | 0.00 | 0.00 | 0.00 | 87 | 1018.2 |
| 20260506080340 | 52 | 0 | 0.0 | 0.9 | 0.00 | 0.00 | 0.00 | 86 | 1018.2 |
| 20260506073340 | 52 | 0 | 0.0 | 0.0 | 0.00 | 0.00 | 0.00 | 89 | 1018.1 |
| 20260506072841 | 51 | 0 | 0.0 | 0.0 | 0.00 | 0.00 | 0.00 | 90 | 1018.1 |
| 20260506072340 | 51 | 0 | 0.0 | 0.0 | 0.00 | 0.00 | 0.00 | 90 | 1018.1 |
| 20260506071840 | 51 | 0 | 0.0 | 0.0 | 0.00 | 0.00 | 0.00 | 89 | 1018.0 |
| 20260506070840 | 50 | 0 | 0.0 | 0.0 | 0.00 | 0.00 | 0.00 | 89 | 1018.0 |
| 20260506062225 | 52 | 0 | 0.0 | 0.0 | 0.00 | 0.00 | 0.00 | 87 | 1017.6 |
| 20260506061725 | 52 | 0 | 0.0 | 0.0 | 0.00 | 0.00 | 0.00 | 86 | 1017.7 |
| 20260506061225 | 52 | 0 | 0.0 | 0.0 | 0.00 | 0.00 | 0.00 | 86 | 1017.7 |
| 20260506060725 | 52 | 0 | 0.0 | 0.9 | 0.00 | 0.00 | 0.00 | 85 | 1017.6 |
| 20260506060225 | 52 | 0 | 0.0 | 0.9 | 0.00 | 0.00 | 0.00 | 85 | 1017.6 |
| 20260506051035 | 54 | 0 | 0.0 | 0.9 | 0.00 | 0.00 | 0.00 | 83 | 1017.3 |
| 20260506050536 | 54 | 0 | 0.0 | 0.9 | 0.00 | 0.00 | 0.00 | 82 | 1017.4 |
| 20260506045036 | 55 | 0 | 0.0 | 0.9 | 0.00 | 0.00 | 0.00 | 81 | 1017.1 |
| 20260506044535 | 55 | 0 | 0.0 | 0.9 | 0.00 | 0.00 | 0.00 | 81 | 1017.1 |
| 20260506044035 | 55 | 0 | 0.0 | 1.7 | 0.00 | 0.00 | 0.00 | 80 | 1017.0 |
| 20260506043535 | 55 | 0 | 0.0 | 3.5 | 0.00 | 0.00 | 0.00 | 80 | 1016.9 |
| 20260506043035 | 55 | 0 | 0.0 | 3.5 | 0.00 | 0.00 | 0.00 | 80 | 1016.8 |
| 20260506042535 | 55 | 0 | 0.0 | 0.9 | 0.00 | 0.00 | 0.00 | 79 | 1016.8 |
| 20260506042035 | 55 | 0 | 0.0 | 3.5 | 0.00 | 0.00 | 0.00 | 79 | 1016.7 |
| 20260506041535 | 56 | 0 | 0.0 | 3.5 | 0.00 | 0.00 | 0.00 | 78 | 1016.7 |